Weather History for Princeton, MN

Change the Weather History Date:

Wednesday, December 12, 2012

  Actual Average Record
Temperature  
Mean Temperature 12 °F -  
Max Temperature 33 °F 28 °F 44 °F (1998)
Min Temperature -9 °F 13 °F -18 °F (2000)
Degree Days  
Heating Degree Days 53    
Moisture  
Dew Point 15 °F    
Average Humidity 81    
Maximum Humidity 100    
Minimum Humidity 60    
Precipitation  
Precipitation 0.03 in - - ()
Sea Level Pressure  
Sea Level Pressure 29.88 in    
Wind  
Wind Speed 3 mph (SE)    
Max Wind Speed 10 mph    
Max Gust Speed 16 mph    
Visibility 8 miles    
Events Fog    
Averages and records for this station are not official NWS values.
T = Trace of Precipitation, MM = Missing Value Source: NWS Daily Summary

Daily Weather History Graph

Daily Weather History Graph

Search for Another Location

Airport:

Trip Planner

Search our weather history database for the weather conditions in past years. The results will help you decide how hot, cold, wet, or windy it might be!

Date:

Astronomy

Dec. 12, 2012 Rise Set
Actual Time 7:45 AM CST 4:30 PM CST
Civil Twilight 7:11 AM CST 5:05 PM CST
Nautical Twilight 6:34 AM CST 5:42 PM CST
Astronomical Twilight 5:58 AM CST 6:18 PM CST
Moon 6:50 AM CST (12/12) 4:09 PM CST (12/12)
Length of Visible Light 9h 53m
Length of Day
8h 44m
Waning Crescent, 1% of the Moon is Illuminated
Dec 12
Waning Crescent
Dec 13
New
Dec 19
First Quarter
Dec 28
Full
Jan 4
Last Quarter

Hourly Weather History & Observations

Time (CST) Temp. Windchill Dew Point Humidity Pressure Visibility Wind Dir Wind Speed Gust Speed Precip Events Conditions
12:11 AM -9.4 °F - -14.8 °F 77% 29.99 in 7.0 mi Calm Calm - N/A   Clear
12:31 AM -9.4 °F - -13.0 °F 84% 29.98 in 7.0 mi Calm Calm - N/A   Clear
12:51 AM -7.6 °F - -11.2 °F 84% 29.98 in 7.0 mi Calm Calm - N/A   Clear
1:11 AM -7.6 °F - -11.2 °F 84% 29.98 in 7.0 mi Calm Calm - N/A   Clear
1:51 AM -5.8 °F - -9.4 °F 84% 29.98 in 10.0 mi Calm Calm - N/A   Clear
2:11 AM -5.8 °F - -9.4 °F 84% 29.97 in 10.0 mi Calm Calm - N/A   Clear
2:32 AM -4.0 °F - -7.6 °F 85% 29.97 in 7.0 mi Calm Calm - N/A   Clear
2:51 AM 1.4 °F -6.2 °F -2.2 °F 85% 29.96 in 7.0 mi East 3.5 mph - N/A   Scattered Clouds
3:11 AM 3.2 °F -6.2 °F 1.4 °F 92% 29.96 in 7.0 mi East 4.6 mph - N/A   Clear
3:32 AM 5.0 °F -4.1 °F 1.4 °F 85% 29.96 in 7.0 mi East 4.6 mph - N/A   Clear
3:51 AM 5.0 °F -2.1 °F 1.4 °F 85% 29.95 in 7.0 mi East 3.5 mph - N/A   Clear
4:11 AM 5.0 °F -4.1 °F 1.4 °F 85% 29.95 in 7.0 mi ESE 4.6 mph - N/A   Mostly Cloudy
4:32 AM 6.8 °F -0.1 °F 3.2 °F 85% 29.94 in 7.0 mi East 3.5 mph - N/A   Scattered Clouds
4:51 AM 8.6 °F 0.1 °F 5.0 °F 85% 29.92 in 7.0 mi East 4.6 mph - N/A   Clear
5:11 AM 8.6 °F 2.0 °F 6.8 °F 92% 29.92 in 7.0 mi East 3.5 mph - N/A   Scattered Clouds
5:51 AM 10.4 °F 0.8 °F 8.6 °F 92% 29.90 in 7.0 mi East 5.8 mph - N/A   Mostly Cloudy
6:11 AM 12.2 °F 0.7 °F 10.4 °F 92% 29.89 in 10.0 mi East 8.1 mph - N/A   Scattered Clouds
6:31 AM 12.2 °F 2.9 °F 10.4 °F 92% 29.89 in 10.0 mi East 5.8 mph - N/A   Mostly Cloudy
6:51 AM 12.2 °F 2.9 °F 10.4 °F 92% 29.87 in 10.0 mi ESE 5.8 mph - N/A   Mostly Cloudy
7:11 AM 14.0 °F 5.1 °F 10.4 °F 86% 29.88 in 7.0 mi ESE 5.8 mph - N/A   Scattered Clouds
7:31 AM 15.8 °F 7.2 °F 12.2 °F 86% 29.87 in 7.0 mi East 5.8 mph - N/A   Clear
7:51 AM 15.8 °F 8.6 °F 12.2 °F 86% 29.86 in 7.0 mi East 4.6 mph - N/A   Scattered Clouds
8:11 AM 15.8 °F 8.6 °F 12.2 °F 86% 29.86 in 7.0 mi East 4.6 mph - N/A   Mostly Cloudy
8:31 AM 17.6 °F 8.2 °F 15.8 °F 93% 29.86 in 7.0 mi East 6.9 mph - N/A   Overcast
8:51 AM 17.6 °F 8.2 °F 15.8 °F 93% 29.86 in 7.0 mi ESE 6.9 mph - N/A   Overcast
9:11 AM 19.4 °F 10.4 °F 17.6 °F 93% 29.86 in 7.0 mi ESE 6.9 mph - N/A   Mostly Cloudy
9:31 AM 21.2 °F 12.6 °F 19.4 °F 93% 29.85 in 10.0 mi ESE 6.9 mph - N/A   Mostly Cloudy
9:51 AM 21.2 °F 11.7 °F 19.4 °F 93% 29.85 in 10.0 mi ESE 8.1 mph - N/A   Mostly Cloudy
10:11 AM 23.0 °F 13.1 °F 21.2 °F 93% 29.85 in 10.0 mi ESE 9.2 mph - N/A   Scattered Clouds
11:11 AM 28.4 °F 20.4 °F 21.2 °F 74% 29.84 in 10.0 mi SE 8.1 mph - N/A   Mostly Cloudy
11:31 AM 28.4 °F 19.7 °F 21.2 °F 74% 29.83 in 10.0 mi SSE 9.2 mph - N/A   Scattered Clouds
11:51 AM 30.2 °F 22.6 °F 21.2 °F 69% 29.82 in 10.0 mi SSE 8.1 mph - 0.01 in   Clear
12:11 PM 32.0 °F 24.2 °F 23.0 °F 69% 29.82 in 10.0 mi South 9.2 mph - N/A   Clear
12:52 PM 33.8 °F 26.4 °F 21.2 °F 60% 29.82 in 10.0 mi South 9.2 mph 16.1 mph N/A   Clear
1:11 PM 33.8 °F 25.8 °F 21.2 °F 60% 29.81 in 10.0 mi South 10.4 mph - N/A   Clear
1:31 PM 33.8 °F 27.0 °F 21.2 °F 60% 29.81 in 10.0 mi South 8.1 mph - N/A   Clear
1:51 PM 33.8 °F 26.4 °F 21.2 °F 60% 29.81 in 10.0 mi South 9.2 mph - N/A   Clear
2:11 PM 33.8 °F 26.4 °F 21.2 °F 60% 29.81 in 10.0 mi South 9.2 mph - N/A   Clear
2:31 PM 33.8 °F 27.7 °F 23.0 °F 65% 29.81 in 10.0 mi South 6.9 mph - N/A   Clear
2:51 PM 33.8 °F 28.6 °F 23.0 °F 65% 29.82 in 10.0 mi South 5.8 mph - N/A   Clear
3:12 PM 33.8 °F 29.6 °F 23.0 °F 65% 29.81 in 10.0 mi South 4.6 mph - N/A   Clear
3:31 PM 33.8 °F 28.6 °F 24.8 °F 70% 29.82 in 10.0 mi South 5.8 mph - N/A   Clear
3:51 PM 33.8 °F 29.6 °F 24.8 °F 70% 29.83 in 10.0 mi South 4.6 mph - N/A   Clear
4:12 PM 33.8 °F 29.6 °F 24.8 °F 70% 29.83 in 10.0 mi South 4.6 mph - 0.02 in   Clear
4:31 PM 33.8 °F 28.6 °F 24.8 °F 70% 29.83 in 10.0 mi SSE 5.8 mph - 0.02 in   Clear
4:51 PM 33.8 °F 28.6 °F 24.8 °F 70% 29.83 in 10.0 mi SSE 5.8 mph - 0.02 in   Scattered Clouds
5:31 PM 33.8 °F 29.6 °F 24.8 °F 70% 29.83 in 10.0 mi South 4.6 mph - N/A   Mostly Cloudy
5:51 PM 33.8 °F 30.8 °F 24.8 °F 70% 29.84 in 10.0 mi South 3.5 mph - N/A   Overcast
6:51 PM 33.8 °F - 24.8 °F 70% 29.85 in 10.0 mi Calm Calm - N/A   Overcast
7:12 PM 32.0 °F - 26.6 °F 80% 29.85 in 10.0 mi Calm Calm - N/A   Overcast
7:51 PM 33.8 °F 29.6 °F 26.6 °F 75% 29.85 in 10.0 mi SE 4.6 mph - N/A   Mostly Cloudy
8:12 PM 33.8 °F 29.6 °F 26.6 °F 75% 29.86 in 10.0 mi SSE 4.6 mph - N/A   Scattered Clouds
8:51 PM 33.8 °F 29.6 °F 26.6 °F 75% 29.87 in 10.0 mi South 4.6 mph - N/A   Clear
9:12 PM 33.8 °F - 26.6 °F 75% 29.88 in 10.0 mi Calm Calm - N/A   Clear
9:31 PM 26.6 °F - 21.2 °F 80% 29.87 in 10.0 mi Calm Calm - N/A   Clear
9:51 PM 26.6 °F - 24.8 °F 93% 29.88 in 10.0 mi Calm Calm - N/A   Scattered Clouds
10:12 PM 26.6 °F - 24.8 °F 93% 29.88 in 10.0 mi Calm Calm - N/A   Scattered Clouds
10:51 PM 23.0 °F - 21.2 °F 93% 29.89 in 0.5 mi Calm Calm - N/A Fog Light Freezing Fog
11:12 PM 21.2 °F - 21.2 °F 100% 29.89 in 0.2 mi Calm Calm - N/A Fog Light Freezing Fog
11:31 PM 21.2 °F - 21.2 °F 100% 29.89 in 0.8 mi Calm Calm - N/A   Mist
11:51 PM 21.2 °F - 19.4 °F 93% 29.89 in 7.0 mi Calm Calm - N/A   Clear